"Pseudo-MPEC" for P21JcjZ

Created 2023 Sep 27 2:22:16 UT using Find_Orb

Click here for an explanation of pseudo-MPECs

 
 Astrometry: 
     P21JcjZ* C2023 09 11Fx,D3AvC?Rf7:/?7R?Sv-(`7Xs41^Zg6AstrometryA27TSgQM@4F52
     P21JcjZ  C2023 09 11M]KYVXredacted;0dapU?ii+'$Lry^cclick-lP^?JV7^)heretcF52
     P21JcjZ  C2023 09 11=+BMforo]wJVAnaL4tKL7XrhpklM(+0WnMbjexplanationTWM,[F52

Station data:
(F52) Pan-STARRS 2, Haleakala  (N20.707382 W156.255910)  US/Hawaii.
   Observers J. Bulger, T. Dukes, T. Lowe, A. Schultz, M. Willman. Measurers
   K. Chambers, S. Chastel, T. de Boer, L. Denneau, J. Fairlamb, H.
   Flewelling, M. Huber, C.-C. Lin, E. Magnier, Y. Ramanjooloo, R. Wainscoat,
   R. Weryk. 1.8-m Ritchey-Chrétien + CCD.

Orbital elements:  P21JcjZ
   Perihelion 2023 Nov 30.03684 +/- 54.4 TT =  0:53:03 (JD 2460278.53684)
Epoch 2023 Sep 11.0 TT = JDT 2460198.5   Earth MOID: 0.1694   Ma: 0.0043
M 325.99553064 +/- 23               (J2000 ecliptic)             AutoNEOCP
n   0.42486020 +/- 0.3              Peri.  276.56167 +/- 90
a   1.75242192 +/- 0.825            Node   153.29117 +/- 50
e   0.4498474 +/- 0.265             Incl.   13.87734 +/- 12
P   2.32/847.32d           H 23.57  G  0.15   U 11.9  SR
q 0.96409940 +/- 0.333    Q 2.54074445 +/- 36.5
From 3 observations 2023 Sept. 11 (31.5 min); mean residual 0".01
Residuals in arcseconds: 
230911 F52  .01+  .01-    230911 F52  .01-  .02+    230911 F52  .01+  .01-    

Ephemerides (geocentric):
Date (UTC) HH   RA             Dec           delta  r     elong  mag " sig PA
---- --------  ------------   ------------  ------ ------ -----  --- --------
2023 09 27 02  00 11 51.623   -36 34 57.76  .23972 1.2007 142.1 22.2  47d  99
2023 09 27 03  00 11 54.193   -36 38 14.37  .23962 1.2004 142.0 22.2  47d  99
2023 09 27 04  00 11 56.768   -36 41 31.03  .23952 1.2002 141.9 22.2  47d  99
2023 09 27 05  00 11 59.349   -36 44 47.75  .23941 1.1999 141.9 22.2  47d  99
2023 09 27 06  00 12 01.937   -36 48 04.52  .23931 1.1997 141.8 22.2  47d  99
2023 09 27 07  00 12 04.531   -36 51 21.34  .23921 1.1994 141.7 22.2  47d  99
2023 09 27 08  00 12 07.130   -36 54 38.22  .23910 1.1991 141.6 22.2  47d  99
2023 09 27 09  00 12 09.736   -36 57 55.16  .23900 1.1989 141.6 22.2  47d  99
2023 09 27 10  00 12 12.348   -37 01 12.14  .23890 1.1986 141.5 22.2  47d  99
2023 09 27 11  00 12 14.967   -37 04 29.17  .23880 1.1984 141.4 22.2  47d  99
2023 09 27 12  00 12 17.591   -37 07 46.26  .23870 1.1981 141.4 22.2  47d  99
2023 09 27 13  00 12 20.222   -37 11 03.40  .23859 1.1979 141.3 22.2  47d  99
2023 09 27 14  00 12 22.859   -37 14 20.58  .23849 1.1976 141.2 22.2  47d  99
2023 09 27 15  00 12 25.502   -37 17 37.82  .23839 1.1974 141.1 22.2  47d  99
2023 09 27 16  00 12 28.151   -37 20 55.11  .23829 1.1971 141.1 22.2  47d  99
2023 09 27 17  00 12 30.807   -37 24 12.44  .23819 1.1969 141.0 22.2  47d  99
2023 09 27 18  00 12 33.469   -37 27 29.82  .23809 1.1966 140.9 22.2  47d  99
2023 09 27 19  00 12 36.138   -37 30 47.25  .23799 1.1964 140.9 22.2  47d  99
2023 09 27 20  00 12 38.813   -37 34 04.73  .23789 1.1961 140.8 22.2  47d  99
2023 09 27 21  00 12 41.494   -37 37 22.25  .23780 1.1959 140.7 22.2  47d  99
2023 09 27 22  00 12 44.182   -37 40 39.81  .23770 1.1956 140.6 22.2  47d  99
2023 09 27 23  00 12 46.876   -37 43 57.43  .23760 1.1954 140.6 22.2  47d  99
2023 09 28 00  00 12 49.577   -37 47 15.08  .23750 1.1951 140.5 22.2  47d  99
2023 09 28 01  00 12 52.284   -37 50 32.79  .23740 1.1948 140.4 22.2  47d  99
2023 09 28 02  00 12 54.998   -37 53 50.53  .23731 1.1946 140.4 22.2  47d  99
2023 09 28 03  00 12 57.718   -37 57 08.32  .23721 1.1943 140.3 22.2  47d  99
2023 09 28 04  00 13 00.445   -38 00 26.15  .23711 1.1941 140.2 22.2  47d  99
2023 09 28 05  00 13 03.179   -38 03 44.02  .23702 1.1938 140.1 22.2  47d  99
2023 09 28 06  00 13 05.919   -38 07 01.94  .23692 1.1936 140.1 22.2  47d  99
2023 09 28 07  00 13 08.666   -38 10 19.89  .23683 1.1933 140.0 22.2  47d  99
2023 09 28 08  00 13 11.419   -38 13 37.89  .23673 1.1931 139.9 22.2  47d  99
2023 09 28 09  00 13 14.179   -38 16 55.92  .23664 1.1928 139.9 22.2  47d  99
2023 09 28 10  00 13 16.946   -38 20 13.99  .23654 1.1926 139.8 22.2  47d  99
2023 09 28 11  00 13 19.719   -38 23 32.11  .23645 1.1923 139.7 22.2  47d  99
2023 09 28 12  00 13 22.500   -38 26 50.26  .23635 1.1921 139.6 22.2  47d  99
2023 09 28 13  00 13 25.287   -38 30 08.45  .23626 1.1918 139.6 22.2  47d  99
2023 09 28 14  00 13 28.080   -38 33 26.67  .23616 1.1916 139.5 22.2  47d  99
2023 09 28 15  00 13 30.881   -38 36 44.93  .23607 1.1913 139.4 22.2  47d  99
2023 09 28 16  00 13 33.689   -38 40 03.23  .23598 1.1911 139.4 22.2  47d  99
2023 09 28 17  00 13 36.503   -38 43 21.56  .23589 1.1908 139.3 22.2  47d  99
2023 09 28 18  00 13 39.324   -38 46 39.93  .23579 1.1906 139.2 22.2  47d  99
2023 09 28 19  00 13 42.153   -38 49 58.33  .23570 1.1903 139.1 22.2  47d  99
2023 09 28 20  00 13 44.988   -38 53 16.77  .23561 1.1901 139.1 22.2  47d  99
2023 09 28 21  00 13 47.830   -38 56 35.24  .23552 1.1898 139.0 22.2  47d  99
2023 09 28 22  00 13 50.679   -38 59 53.74  .23543 1.1896 138.9 22.2  47d  99
2023 09 28 23  00 13 53.535   -39 03 12.28  .23534 1.1893 138.8 22.2  47d  99
2023 09 29 00  00 13 56.398   -39 06 30.84  .23525 1.1891 138.8 22.2  47d  99
2023 09 29 01  00 13 59.268   -39 09 49.44  .23516 1.1888 138.7 22.2  47d  99